This demonstration page uses our WeatherBlox Daily Observations layout. Learn more.

Left ArrowRight Arrow

38.20091, -84.87328

Hourly Observations for October 24, 2021

Temp ( °F °C ) Dew Point ( °F °C ) Humidity (%) Winds ( mph kmh ) Pressure ( in mb ) Visibility ( mi km ) Precip ( " mm )
12:53 am 00:53 Cloudy 57 13.9 55 12.8 93 93 E 3 6 30.01 1016 9 14 0.00 0.00
1:53 am 01:53 Cloudy 56 13.3 55 12.8 97 97 ENE 3 6 30.01 1016 7 11 0.00 0.00
2:53 am 02:53 Cloudy 56 13.3 55 12.8 97 97 E 3 6 30.01 1016 10 16 0.00 0.00
3:53 am 03:53 Cloudy 56 13.3 54 12.2 93 93 SE 3 6 30.01 1016 10 16 0.00 0.00
4:53 am 04:53 Cloudy 55 12.8 54 12.2 96 96 SE 5 7 29.99 1016 9 14 0.00 0.00
5:53 am 05:53 Mostly Cloudy 55 12.8 54 12.2 96 96 SE 5 7 29.99 1016 10 16 0.00 0.00
6:53 am 06:53 Cloudy 56 13.3 54 12.2 93 93 SE 3 6 29.99 1016 10 16 0.00 0.00
7:53 am 07:53 Cloudy 56 13.3 54 12.2 93 93 SE 7 11 29.98 1015 10 16 0.00 0.00
8:53 am 08:53 Cloudy 58 14.4 54 12.2 87 87 SSE 7 11 29.97 1015 10 16 0.00 0.00
9:15 am 09:15 Cloudy with Light Rain 58 14.4 54 12.2 87 87 SSE 6 9 29.98 1015 2 3 0.05 1.27
9:19 am 09:19 Cloudy with Nearby Thunderstorms 58 14.4 55 12.8 90 90 SSE 5 7 29.99 1015 4 6 0.05 1.27
9:38 am 09:38 Cloudy with Nearby Thunderstorms 58 14.4 55 12.8 90 90 SSE 8 13 29.99 1015 2 2 0.19 4.83
9:45 am 09:45 Cloudy with Light Rain 57 13.9 55 12.8 93 93 SSE 8 13 29.99 1016 1 2 0.23 5.84
9:48 am 09:48 Cloudy with Light Rain 57 14 55 13 94 94 SSE 5 7 29.99 1016 2 3 0.23 5.84
9:50 am 09:50 Cloudy with Nearby Thunderstorms 57 14 55 13 94 94 SSE 5 7 29.99 1016 6 10 0.23 5.84
9:53 am 09:53 Cloudy with Nearby Thunderstorms 57 13.9 55 12.8 93 93 S 6 9 29.98 1015 8 13 0.23 5.84
10:01 am 10:01 Cloudy with Thunderstorms 58 14.4 56 13.3 93 93 VRB 3 6 30.00 1016 10 16 0.00 0.00
10:16 am 10:16 Cloudy 59 15 56 13.3 90 90 SSE 3 6 30.00 1016 10 16 0.01 0.25
10:29 am 10:29 Cloudy with Nearby Thunderstorms 59 15 56 13.3 90 90 SE 6 9 29.99 1015 9 14 0.01 0.25
10:44 am 10:44 Cloudy with Thunderstorms 59 15 57 13.9 93 93 Calm 29.99 1015 9 14 0.01 0.25
10:53 am 10:53 Cloudy with Light Rain 60 15.6 57 13.9 90 90 ESE 5 7 29.98 1015 5 8 0.04 1.02
10:57 am 10:57 Cloudy with Strong Thunderstorms 59 15 57 13.9 93 93 SE 3 6 30.00 1016 3 5 0.04 1.02
10:59 am 10:59 Cloudy with Strong Thunderstorms 59 15 57 13.9 93 93 ESE 6 9 29.99 1015 2 2 0.12 3.05
11:09 am 11:09 Cloudy with Thunderstorms 60 15.6 58 14.4 93 93 ESE 3 6 29.98 1015 3 4 0.13 3.30
11:13 am 11:13 Cloudy 60 15.6 58 14.4 93 93 SE 3 6 29.98 1015 10 16 0.13 3.30
11:53 am 11:53 Cloudy 67 19.4 60 15.6 79 79 SSW 8 13 29.97 1015 10 16 0.13 3.30
12:26 pm 12:26 Partly Cloudy 69 20.6 62 16.7 78 78 S 8 13 29.95 1014 10 16 0.00 0.00
12:53 pm 12:53 Sunny 71 21.7 61 16.1 71 71 SSW 15 24 29.94 1014 10 16 0.00 0.00
1:53 pm 13:53 Partly Cloudy 76 24.4 63 17.2 64 64 SSW 14 22 29.92 1013 10 16 0.00 0.00
2:53 pm 14:53 Sunny 78 25.6 63 17.2 60 60 SSW 12 19 29.90 1013 10 16 0.00 0.00
3:53 pm 15:53 Mostly Cloudy 77 25 62 16.7 60 60 SSW 15 24 29.89 1012 10 16 0.00 0.00
4:53 pm 16:53 Mostly Sunny 76 24.4 62 16.7 62 62 SSW 16 26 29.88 1012 10 16 0.00 0.00
5:53 pm 17:53 Sunny 76 24.4 61 16.1 60 60 S 10 17 29.87 1011 10 16 0.00 0.00
6:53 pm 18:53 Clear 73 22.8 60 15.6 64 64 SSW 10 17 29.86 1011 10 16 0.00 0.00
7:53 pm 19:53 Clear 72 22.2 60 15.6 66 66 S 8 13 29.85 1011 10 16 0.00 0.00
8:53 pm 20:53 Clear 71 21.7 58 14.4 63 63 S 15 24 29.84 1011 10 16 0.00 0.00
9:53 pm 21:53 Clear 70 21.1 58 14.4 66 66 S 13 20 29.85 1011 10 16 0.00 0.00
10:53 pm 22:53 Clear 68 20 56 13.3 65 65 S 12 19 29.85 1011 10 16 0.00 0.00
11:53 pm 23:53 Clear 67 19.4 53 11.7 61 61 S 13 20 29.83 1010 10 16 0.00 0.00

Powered by AerisWeather